Tracking 17138 objects as of 8-July-2015
HD Live streaming from Space Station

THORAD AGENA D DEB

Track THORAD AGENA D DEB now!
10-day predictions
THORAD AGENA D DEB is classified as:


NORAD ID: 4768
Int'l Code: 1970-025DN
Perigee: 985.6 km
Apogee: 1,032.0 km
Inclination: 100.1 °
Period: 105.2 minutes
Semi major axis: 7379 km
RCS: 0.064 m2 (small)
Launch date: April 8, 1970
Source: United States (US)

Note: This is SATELLITE DEBRIS
Your satellite tracking list
Your tracking list is empty





NASA's NSSDC Master Catalog

Two Line Element Set (TLE):
1 04768U 70025DN  15188.90114325  .00000120  00000-0  19323-3 0  9991
2 04768 100.1315 314.6472 0031390 050.0646 068.5566 13.69420163250987

Source of the keplerian elements: AFSPC

N2YO: 310